Location: ??????????
(54.4061°N, 22.6114°E)
Time: 22:11:05
(UTC+00:00)

Cosmos 2151 - Pass Details

Date: 23 October 2019
Orbit: 582 x 601 km, 82.5° (Epoch: 21 November)

Event Time Altitude Azimuth Distance (km) Brightness Sun altitude
Rises 17:54:20 0° 345° (NNW) 2,865 6.9 -23.8°
Reaches altitude 10° 17:56:35 10° 341° (NNW) 1,958 6.0 -24.1°
Maximum altitude 18:00:48 55° 264° (W) 728 3.6 -24.7°
Enters shadow 18:02:28 33° 204° (SSW) 1,018 4.2 -25.0°
